This demonstration page uses our WeatherBlox Daily Observations layout. Learn more.

Left ArrowRight Arrow

38.80484, -77.04692

Hourly Observations for February 13, 2021

Temp ( °F °C ) Dew Point ( °F °C ) Humidity (%) Winds ( mph kmh ) Pressure ( in mb ) Visibility ( mi km ) Precip ( " mm )
12:52 am 00:52 Cloudy 31 -0.6 21 -6.1 67 67 NNE 6 9 30.30 1026 10 16 0.00 0.00
1:52 am 01:52 Cloudy 31 -0.6 21 -6.1 67 67 ENE 9 15 30.29 1026 10 16 0.00 0.00
2:52 am 02:52 Cloudy 31 -0.6 20 -6.7 64 64 NNE 10 17 30.29 1026 10 16 0.00 0.00
3:52 am 03:52 Cloudy 31 -0.6 18 -7.8 59 59 NNE 14 22 30.28 1025 10 16 0.00 0.00
4:52 am 04:52 Cloudy 31 -0.6 17 -8.3 56 56 NNE 14 22 30.27 1025 10 16 0.00 0.00
5:52 am 05:52 Cloudy 31 -0.6 19 -7.2 61 61 NNE 13 20 30.27 1025 10 16 0.00 0.00
6:44 am 06:44 Cloudy 31 -0.6 20 -6.7 64 64 NE 9 15 30.27 1025 10 16 0.00 0.00
6:52 am 06:52 Cloudy 31 -0.6 19 -7.2 61 61 NNE 10 17 30.26 1025 10 16 0.00 0.00
7:52 am 07:52 Cloudy 31 -0.6 16 -8.9 54 54 NE 12 19 30.28 1025 10 16 0.00 0.00
8:24 am 08:24 Cloudy 31 -0.6 16 -8.9 54 54 NE 10 17 30.28 1026 10 16 0.00 0.00
8:45 am 08:45 Cloudy with Light Freezing Rain 30 -1.1 18 -7.8 61 61 NNE 13 20 30.29 1026 8 13 0.00 0.00
8:52 am 08:52 Cloudy with Light Freezing Rain 30 -1.1 18 -7.8 61 61 NE 12 19 30.29 1026 6 10 0.00 0.00
9:52 am 09:52 Cloudy with Light Freezing Rain 29 -1.7 22 -5.6 75 75 NNE 10 17 30.28 1026 6 10 0.03 0.76
10:15 am 10:15 Cloudy with Light Freezing Rain 29 -1.7 22 -5.6 75 75 NNE 13 20 30.29 1026 4 6 0.01 0.25
10:52 am 10:52 Cloudy with Light Freezing Rain 29 -1.7 24 -4.4 82 82 NNE 10 17 30.29 1026 4 6 0.06 1.52
11:52 am 11:52 Cloudy with Light Freezing Rain 30 -1.1 26 -3.3 85 85 NE 8 13 30.27 1025 3 5 0.08 2.03
11:55 am 11:55 Cloudy with Light Freezing Rain 30 -1.1 26 -3.3 85 85 NNE 8 13 30.27 1025 3 5 0.01 0.25
11:57 am 11:57 Cloudy with Light Freezing Rain 30 -1.1 26 -3.3 85 85 NNE 8 13 30.27 1025 3 5 0.01 0.25
12:43 pm 12:43 Cloudy with Mist and Fog 30 -1.1 27 -2.8 88 88 NE 7 11 30.25 1025 3 5 0.08 2.03
12:52 pm 12:52 Cloudy with Mist and Fog 30 -1.1 26 -3.3 85 85 N 8 13 30.24 1024 3 4 0.09 2.29
12:59 pm 12:59 Cloudy with Mist and Fog 30 -1.1 27 -2.8 88 88 NNE 7 11 30.25 1025 3 5 0.00 0.00
1:05 pm 13:05 Cloudy with Mist and Fog 30 -1.1 27 -2.8 88 88 NNE 9 15 30.25 1025 3 4 0.01 0.25
1:28 pm 13:28 Cloudy with Mist and Fog 30 -1.1 26 -3.3 85 85 NNE 9 15 30.24 1024 2 3 0.03 0.76
1:33 pm 13:33 Cloudy with Mist and Fog 30 -1.1 26 -3.3 85 85 NNE 10 17 30.23 1024 2 3 0.04 1.02
1:44 pm 13:44 Cloudy with Mist and Fog 30 -1.1 27 -2.8 88 88 NE 9 15 30.22 1023 3 4 0.05 1.27
1:52 pm 13:52 Cloudy with Mist and Fog 30 -1.1 27 -2.8 88 88 NE 10 17 30.21 1023 2 3 0.06 1.52
1:54 pm 13:54 Cloudy with Mist and Fog 30 -1.1 27 -2.8 88 88 NE 9 15 30.22 1023 2 3 0.00 0.00
1:59 pm 13:59 Cloudy with Mist and Fog 30 -1.1 27 -2.8 88 88 NE 9 15 30.22 1023 3 5 0.00 0.00
2:30 pm 14:30 Cloudy with Mist and Fog 31 -0.6 27 -2.8 85 85 NE 9 15 30.20 1023 4 6 0.02 0.51
2:49 pm 14:49 Cloudy with Mist and Fog 30 -1 28 -2 93 93 NNE 7 11 30.20 1023 4 6 0.04 1.02
2:52 pm 14:52 Cloudy with Mist and Fog 31 -0.6 28 -2.2 89 89 NNE 8 13 30.19 1023 4 6 0.04 1.02
3:09 pm 15:09 Cloudy with Mist and Fog 31 -0.6 28 -2.2 89 89 NE 7 11 30.19 1022 6 10 0.01 0.25
3:22 pm 15:22 Cloudy with Light Freezing Rain 31 -0.6 27 -2.8 85 85 NE 8 13 30.19 1022 4 6 0.03 0.76
3:30 pm 15:30 Cloudy with Light Freezing Rain 31 -0.6 28 -2.2 89 89 N 8 13 30.20 1023 3 4 0.03 0.76
3:35 pm 15:35 Cloudy with Mist and Fog 31 -0.6 28 -2.2 89 89 N 9 15 30.20 1023 3 4 0.04 1.02
3:47 pm 15:47 Cloudy with Mist and Fog 30 -1 28 -2 93 93 NNE 8 13 30.19 1022 3 4 0.05 1.27
3:52 pm 15:52 Cloudy with Mist and Fog 31 -0.6 28 -2.2 89 89 NNE 9 15 30.19 1022 4 6 0.05 1.27
4:20 pm 16:20 Cloudy with Mist and Fog 31 -0.6 28 -2.2 89 89 NNE 12 19 30.18 1022 4 6 0.01 0.25
4:27 pm 16:27 Cloudy with Light Freezing Rain 30 -1.1 27 -2.8 88 88 NE 13 20 30.18 1022 4 6 0.02 0.51
4:31 pm 16:31 Cloudy with Light Freezing Rain 30 -1.1 27 -2.8 88 88 NNE 14 22 30.18 1022 4 6 0.02 0.51
4:52 pm 16:52 Cloudy with Light Freezing Rain 31 -0.6 27 -2.8 85 85 NNE 12 19 30.17 1022 5 8 0.03 0.76
5:02 pm 17:02 Cloudy with Light Freezing Rain 30 -1.1 27 -2.8 88 88 NNE 12 19 30.17 1022 6 10 0.01 0.25
5:44 pm 17:44 Cloudy with Light Freezing Rain 30 -1.1 26 -3.3 85 85 NNE 12 19 30.17 1022 10 16 0.01 0.25
5:52 pm 17:52 Cloudy with Light Freezing Rain 30 -1.1 26 -3.3 85 85 NE 12 19 30.17 1022 10 16 0.01 0.25
6:22 pm 18:22 Cloudy with Light Freezing Rain 30 -1.1 26 -3.3 85 85 NNE 14 22 30.17 1022 10 16 0.00 0.00
6:52 pm 18:52 Cloudy with Light Freezing Rain 30 -1.1 26 -3.3 85 85 NNE 12 19 30.16 1022 10 16 0.00 0.00
7:52 pm 19:52 Cloudy with Light Freezing Rain 30 -1.1 26 -3.3 85 85 NNE 10 17 30.18 1022 7 11 0.00 0.00
8:52 pm 20:52 Cloudy 29 -1.7 26 -3.3 89 89 N 13 20 30.17 1022 7 11 0.00 0.00
9:10 pm 21:10 Cloudy 29 -1.7 26 -3.3 89 89 N 16 26 30.18 1022 7 11 0.00 0.00
9:35 pm 21:35 Cloudy 29 -1.7 25 -3.9 85 85 NNE 13 20 30.18 1022 10 16 0.00 0.00
9:52 pm 21:52 Cloudy 29 -1.7 25 -3.9 85 85 NNE 13 20 30.18 1022 10 16 0.00 0.00
10:40 pm 22:40 Cloudy 29 -1.7 25 -3.9 85 85 NNE 14 22 30.18 1022 9 14 0.00 0.00
10:52 pm 22:52 Cloudy 29 -1.7 25 -3.9 85 85 NNE 10 17 30.18 1022 9 14 0.00 0.00
11:52 pm 23:52 Cloudy with Mist and Fog 29 -1.7 26 -3.3 89 89 N 10 17 30.19 1022 6 10 0.00 0.00

Powered by AerisWeather